owner,sensor,date,latitude,longitude,vertical_datum,sea_water_speed,direction_of_sea_water_velocity,upward_sea_water_velocity,qcFlag
Kerr-McGee,ioos:station:wmo:42373:1,2021-09-26T22:01:00Z,27.3539,-94.6254,79.0,20.7,39.3,-9999.0,'111111111,111111111,999999991'
Kerr-McGee,ioos:station:wmo:42373:1,2021-09-27T17:22:00Z,27.3539,-94.6254,79.0,14.9,107.9,-9999.0,'111111111,111111111,999999991'
Kerr-McGee,ioos:station:wmo:42373:1,2021-09-27T17:42:00Z,27.3539,-94.6254,79.0,15.1,82.8,-9999.0,'111111111,111111111,999999991'
Kerr-McGee,ioos:station:wmo:42373:1,2021-09-27T18:02:00Z,27.3539,-94.6254,79.0,16.0,79.5,-9999.0,'111111111,111111111,999999991'
Kerr-McGee,ioos:station:wmo:42373:1,2021-09-27T18:36:00Z,27.3539,-94.6254,79.0,17.4,72.9,-9999.0,'111111111,111111111,999999991'
Kerr-McGee,ioos:station:wmo:42373:1,2021-09-27T18:56:00Z,27.3539,-94.6254,79.0,16.9,67.4,-9999.0,'111111111,111111111,999999991'
Kerr-McGee,ioos:station:wmo:42373:1,2021-09-27T19:16:00Z,27.3539,-94.6254,79.0,17.8,64.3,-9999.0,'111111111,111111111,999999991'
Kerr-McGee,ioos:station:wmo:42373:1,2021-09-27T19:36:00Z,27.3539,-94.6254,79.0,17.4,64.9,-9999.0,'111111111,111111111,999999991'
Kerr-McGee,ioos:station:wmo:42373:1,2021-09-27T19:56:00Z,27.3539,-94.6254,79.0,18.1,63.0,-9999.0,'111111111,111111111,999999991'
Kerr-McGee,ioos:station:wmo:42373:1,2021-09-27T20:16:00Z,27.3539,-94.6254,79.0,18.0,63.3,-9999.0,'111111111,111111111,999999991'
Kerr-McGee,ioos:station:wmo:42373:1,2021-09-27T20:40:00Z,27.3539,-94.6254,79.0,19.7,56.0,-9999.0,'111111111,111111111,999999991'
Kerr-McGee,ioos:station:wmo:42373:1,2021-09-27T21:00:00Z,27.3539,-94.6254,79.0,20.2,52.8,-9999.0,'111111111,111111111,999999991'
Kerr-McGee,ioos:station:wmo:42373:1,2021-09-27T21:20:00Z,27.3539,-94.6254,79.0,21.0,50.6,-9999.0,'111111111,111111111,999999991'
Kerr-McGee,ioos:station:wmo:42373:1,2021-09-27T21:40:00Z,27.3539,-94.6254,79.0,21.8,52.1,-9999.0,'111111111,111111111,999999991'
Kerr-McGee,ioos:station:wmo:42373:1,2021-09-27T22:00:00Z,27.3539,-94.6254,79.0,21.9,52.6,-9999.0,'111111111,111111111,999999991'
Kerr-McGee,ioos:station:wmo:42373:1,2021-09-27T22:20:00Z,27.3539,-94.6254,79.0,22.5,54.8,-9999.0,'111111111,111111111,999999991'
Kerr-McGee,ioos:station:wmo:42373:1,2021-09-27T22:40:00Z,27.3539,-94.6254,79.0,21.1,57.6,-9999.0,'111111111,111111111,999999991'
Kerr-McGee,ioos:station:wmo:42373:1,2021-09-27T23:00:00Z,27.3539,-94.6254,79.0,22.2,58.2,-9999.0,'111111111,111111111,999999991'
Kerr-McGee,ioos:station:wmo:42373:1,2021-09-27T23:20:00Z,27.3539,-94.6254,79.0,19.8,65.2,-9999.0,'111111111,111111111,999999991'
Kerr-McGee,ioos:station:wmo:42373:1,2021-09-27T23:40:00Z,27.3539,-94.6254,79.0,21.3,66.4,-9999.0,'111111111,111111111,999999991'
Kerr-McGee,ioos:station:wmo:42373:1,2021-09-28T00:00:00Z,27.3539,-94.6254,79.0,21.4,66.0,-9999.0,'111111111,111111111,999999991'
Kerr-McGee,ioos:station:wmo:42373:1,2021-09-28T00:20:00Z,27.3539,-94.6254,79.0,22.2,65.5,-9999.0,'111111111,111111111,999999991'
Kerr-McGee,ioos:station:wmo:42373:1,2021-09-28T00:40:00Z,27.3539,-94.6254,79.0,24.8,61.4,-9999.0,'111111111,111111111,999999991'
Kerr-McGee,ioos:station:wmo:42373:1,2021-09-28T01:00:00Z,27.3539,-94.6254,79.0,25.7,67.8,-9999.0,'111111111,111111111,999999991'
Kerr-McGee,ioos:station:wmo:42373:1,2021-09-28T01:20:00Z,27.3539,-94.6254,79.0,26.0,66.4,-9999.0,'111111111,111111111,999999991'
Kerr-McGee,ioos:station:wmo:42373:1,2021-09-28T01:40:00Z,27.3539,-94.6254,79.0,27.0,70.6,-9999.0,'111111111,111111111,999999991'
Kerr-McGee,ioos:station:wmo:42373:1,2021-09-28T02:00:00Z,27.3539,-94.6254,79.0,26.9,64.0,-9999.0,'111111111,111111111,999999991'
Kerr-McGee,ioos:station:wmo:42373:1,2021-09-28T02:20:00Z,27.3539,-94.6254,79.0,27.8,64.9,-9999.0,'111111111,111111111,999999991'
Kerr-McGee,ioos:station:wmo:42373:1,2021-09-28T02:40:00Z,27.3539,-94.6254,79.0,28.8,64.3,-9999.0,'111111111,111111111,999999991'
Kerr-McGee,ioos:station:wmo:42373:1,2021-09-28T03:00:00Z,27.3539,-94.6254,79.0,28.9,65.5,-9999.0,'111111111,111111111,999999991'
Kerr-McGee,ioos:station:wmo:42373:1,2021-09-28T03:20:00Z,27.3539,-94.6254,79.0,30.5,66.8,-9999.0,'111111111,111111111,999999991'
Kerr-McGee,ioos:station:wmo:42373:1,2021-09-28T03:40:00Z,27.3539,-94.6254,79.0,29.8,73.2,-9999.0,'111111111,111111111,999999991'
Kerr-McGee,ioos:station:wmo:42373:1,2021-09-28T04:00:00Z,27.3539,-94.6254,79.0,29.9,75.9,-9999.0,'111111111,111111111,999999991'
Kerr-McGee,ioos:station:wmo:42373:1,2021-09-28T04:20:00Z,27.3539,-94.6254,79.0,29.4,77.2,-9999.0,'111111111,111111111,999999991'
Kerr-McGee,ioos:station:wmo:42373:1,2021-09-28T04:40:00Z,27.3539,-94.6254,79.0,29.2,79.0,-9999.0,'111111111,111111111,999999991'
Kerr-McGee,ioos:station:wmo:42373:1,2021-09-28T05:00:00Z,27.3539,-94.6254,79.0,28.6,82.0,-9999.0,'111111111,111111111,999999991'
Kerr-McGee,ioos:station:wmo:42373:1,2021-09-28T05:20:00Z,27.3539,-94.6254,79.0,29.7,84.0,-9999.0,'111111111,111111111,999999991'
Kerr-McGee,ioos:station:wmo:42373:1,2021-09-28T05:40:00Z,27.3539,-94.6254,79.0,29.5,84.8,-9999.0,'111111111,111111111,999999991'
Kerr-McGee,ioos:station:wmo:42373:1,2021-09-28T06:00:00Z,27.3539,-94.6254,79.0,29.5,85.7,-9999.0,'111111111,111111111,999999991'
Kerr-McGee,ioos:station:wmo:42373:1,2021-09-28T06:20:00Z,27.3539,-94.6254,79.0,30.5,78.3,-9999.0,'111111111,111111111,999999991'
Kerr-McGee,ioos:station:wmo:42373:1,2021-09-28T06:40:00Z,27.3539,-94.6254,79.0,31.4,80.5,-9999.0,'111111111,111111111,999999991'
Kerr-McGee,ioos:station:wmo:42373:1,2021-09-28T07:00:00Z,27.3539,-94.6254,79.0,30.8,80.1,-9999.0,'111111111,111111111,999999991'
Kerr-McGee,ioos:station:wmo:42373:1,2021-09-28T07:20:00Z,27.3539,-94.6254,79.0,29.3,93.7,-9999.0,'111111111,111111111,999999991'
Kerr-McGee,ioos:station:wmo:42373:1,2021-09-28T07:40:00Z,27.3539,-94.6254,79.0,29.0,96.3,-9999.0,'111111111,111111111,999999991'
Kerr-McGee,ioos:station:wmo:42373:1,2021-09-28T08:00:00Z,27.3539,-94.6254,79.0,29.0,98.3,-9999.0,'111111111,111111111,999999991'
Kerr-McGee,ioos:station:wmo:42373:1,2021-09-28T08:20:00Z,27.3539,-94.6254,79.0,29.1,100.9,-9999.0,'111111111,111111111,999999991'
Kerr-McGee,ioos:station:wmo:42373:1,2021-09-28T08:40:00Z,27.3539,-94.6254,79.0,29.4,102.8,-9999.0,'111111111,111111111,999999991'
Kerr-McGee,ioos:station:wmo:42373:1,2021-09-28T09:00:00Z,27.3539,-94.6254,79.0,28.8,105.1,-9999.0,'111111111,111111111,999999991'
Kerr-McGee,ioos:station:wmo:42373:1,2021-09-28T09:20:00Z,27.3539,-94.6254,79.0,28.6,107.9,-9999.0,'111111111,111111111,999999991'
Kerr-McGee,ioos:station:wmo:42373:1,2021-09-28T09:40:00Z,27.3539,-94.6254,79.0,28.4,108.7,-9999.0,'111111111,111111111,999999991'
Kerr-McGee,ioos:station:wmo:42373:1,2021-09-28T10:00:00Z,27.3539,-94.6254,79.0,28.9,109.0,-9999.0,'111111111,111111111,999999991'
Kerr-McGee,ioos:station:wmo:42373:1,2021-09-28T10:20:00Z,27.3539,-94.6254,79.0,28.0,109.0,-9999.0,'111111111,111111111,999999991'
Kerr-McGee,ioos:station:wmo:42373:1,2021-09-28T10:40:00Z,27.3539,-94.6254,79.0,28.0,107.7,-9999.0,'111111111,111111111,999999991'
Kerr-McGee,ioos:station:wmo:42373:1,2021-09-28T11:00:00Z,27.3539,-94.6254,79.0,28.0,109.9,-9999.0,'111111111,111111111,999999991'
Kerr-McGee,ioos:station:wmo:42373:1,2021-09-28T11:20:00Z,27.3539,-94.6254,79.0,32.5,104.6,-9999.0,'111111111,111111111,999999991'
Kerr-McGee,ioos:station:wmo:42373:1,2021-09-28T11:40:00Z,27.3539,-94.6254,79.0,30.1,106.4,-9999.0,'111111111,111111111,999999991'
Kerr-McGee,ioos:station:wmo:42373:1,2021-09-28T12:00:00Z,27.3539,-94.6254,79.0,25.8,113.1,-9999.0,'111111111,111111111,999999991'
Kerr-McGee,ioos:station:wmo:42373:1,2021-09-28T12:20:00Z,27.3539,-94.6254,79.0,23.8,110.4,-9999.0,'111111111,111111111,999999991'
Kerr-McGee,ioos:station:wmo:42373:1,2021-09-28T12:40:00Z,27.3539,-94.6254,79.0,21.8,114.3,-9999.0,'111111111,111111111,999999991'
Kerr-McGee,ioos:station:wmo:42373:1,2021-09-28T13:00:00Z,27.3539,-94.6254,79.0,23.0,111.1,-9999.0,'111111111,111111111,999999991'
Kerr-McGee,ioos:station:wmo:42373:1,2021-09-28T13:20:00Z,27.3539,-94.6254,79.0,20.5,113.6,-9999.0,'111111111,111111111,999999991'
Kerr-McGee,ioos:station:wmo:42373:1,2021-09-28T13:40:00Z,27.3539,-94.6254,79.0,22.4,112.3,-9999.0,'111111111,111111111,999999991'
Kerr-McGee,ioos:station:wmo:42373:1,2021-09-28T14:00:00Z,27.3539,-94.6254,79.0,21.9,110.3,-9999.0,'111111111,111111111,999999991'
Kerr-McGee,ioos:station:wmo:42373:1,2021-09-28T14:20:00Z,27.3539,-94.6254,79.0,19.6,110.3,-9999.0,'111111111,111111111,999999991'
Kerr-McGee,ioos:station:wmo:42373:1,2021-09-28T14:40:00Z,27.3539,-94.6254,79.0,20.6,109.6,-9999.0,'111111111,111111111,999999991'
Kerr-McGee,ioos:station:wmo:42373:1,2021-09-28T15:00:00Z,27.3539,-94.6254,79.0,20.7,113.0,-9999.0,'111111111,111111111,999999991'
Kerr-McGee,ioos:station:wmo:42373:1,2021-09-28T15:20:00Z,27.3539,-94.6254,79.0,20.3,111.6,-9999.0,'111111111,111111111,999999991'
Kerr-McGee,ioos:station:wmo:42373:1,2021-09-28T15:40:00Z,27.3539,-94.6254,79.0,20.0,106.9,-9999.0,'111111111,111111111,999999991'
Kerr-McGee,ioos:station:wmo:42373:1,2021-09-28T16:00:00Z,27.3539,-94.6254,79.0,19.1,105.8,-9999.0,'111111111,111111111,999999991'
Kerr-McGee,ioos:station:wmo:42373:1,2021-09-28T16:20:00Z,27.3539,-94.6254,79.0,20.9,104.4,-9999.0,'111111111,111111111,999999991'
Kerr-McGee,ioos:station:wmo:42373:1,2021-09-28T16:40:00Z,27.3539,-94.6254,79.0,19.8,104.3,-9999.0,'111111111,111111111,999999991'
Kerr-McGee,ioos:station:wmo:42373:1,2021-09-28T17:00:00Z,27.3539,-94.6254,79.0,19.3,95.9,-9999.0,'111111111,111111111,999999991'
Kerr-McGee,ioos:station:wmo:42373:1,2021-09-28T17:20:00Z,27.3539,-94.6254,79.0,20.0,94.3,-9999.0,'111111111,111111111,999999991'
Kerr-McGee,ioos:station:wmo:42373:1,2021-09-28T17:40:00Z,27.3539,-94.6254,79.0,21.8,88.7,-9999.0,'111111111,111111111,999999991'
Kerr-McGee,ioos:station:wmo:42373:1,2021-09-28T18:00:00Z,27.3539,-94.6254,79.0,16.0,93.6,-9999.0,'111111111,111111111,999999991'
Kerr-McGee,ioos:station:wmo:42373:1,2021-09-28T18:20:00Z,27.3539,-94.6254,79.0,15.9,88.9,-9999.0,'111111111,111111111,999999991'
Kerr-McGee,ioos:station:wmo:42373:1,2021-09-28T18:40:00Z,27.3539,-94.6254,79.0,16.2,81.5,-9999.0,'111111111,111111111,999999991'
Kerr-McGee,ioos:station:wmo:42373:1,2021-09-28T19:00:00Z,27.3539,-94.6254,79.0,16.2,76.4,-9999.0,'111111111,111111111,999999991'
Kerr-McGee,ioos:station:wmo:42373:1,2021-09-28T19:20:00Z,27.3539,-94.6254,79.0,17.3,74.9,-9999.0,'111111111,111111111,999999991'
Kerr-McGee,ioos:station:wmo:42373:1,2021-09-28T19:40:00Z,27.3539,-94.6254,79.0,17.6,74.5,-9999.0,'111111111,111111111,999999991'
Kerr-McGee,ioos:station:wmo:42373:1,2021-09-28T20:00:00Z,27.3539,-94.6254,79.0,18.2,73.8,-9999.0,'111111111,111111111,999999991'
Kerr-McGee,ioos:station:wmo:42373:1,2021-09-28T20:20:00Z,27.3539,-94.6254,79.0,18.6,69.5,-9999.0,'111111111,111111111,999999991'
Kerr-McGee,ioos:station:wmo:42373:1,2021-09-28T20:40:00Z,27.3539,-94.6254,79.0,18.5,67.5,-9999.0,'111111111,111111111,999999991'
Kerr-McGee,ioos:station:wmo:42373:1,2021-09-28T21:00:00Z,27.3539,-94.6254,79.0,18.1,62.7,-9999.0,'111111111,111111111,999999991'
Kerr-McGee,ioos:station:wmo:42373:1,2021-09-28T21:20:00Z,27.3539,-94.6254,79.0,18.2,63.6,-9999.0,'111111111,111111111,999999991'
Kerr-McGee,ioos:station:wmo:42373:1,2021-09-28T21:40:00Z,27.3539,-94.6254,79.0,17.5,58.6,-9999.0,'111111111,111111111,999999991'
Kerr-McGee,ioos:station:wmo:42373:1,2021-09-28T22:00:00Z,27.3539,-94.6254,79.0,19.1,56.6,-9999.0,'111111111,111111111,999999991'
Kerr-McGee,ioos:station:wmo:42373:1,2021-09-28T22:20:00Z,27.3539,-94.6254,79.0,18.4,59.3,-9999.0,'111111111,111111111,999999991'
Kerr-McGee,ioos:station:wmo:42373:1,2021-09-28T22:40:00Z,27.3539,-94.6254,79.0,18.6,56.7,-9999.0,'111111111,111111111,999999991'
Kerr-McGee,ioos:station:wmo:42373:1,2021-09-28T23:00:00Z,27.3539,-94.6254,79.0,19.1,57.6,-9999.0,'111111111,111111111,999999991'
Kerr-McGee,ioos:station:wmo:42373:1,2021-09-28T23:20:00Z,27.3539,-94.6254,79.0,19.7,56.4,-9999.0,'111111111,111111111,999999991'
Kerr-McGee,ioos:station:wmo:42373:1,2021-09-28T23:40:00Z,27.3539,-94.6254,79.0,21.2,52.1,-9999.0,'111111111,111111111,999999991'
Kerr-McGee,ioos:station:wmo:42373:1,2021-09-29T00:00:00Z,27.3539,-94.6254,79.0,22.5,54.4,-9999.0,'111111111,111111111,999999991'
Kerr-McGee,ioos:station:wmo:42373:1,2021-09-29T00:20:00Z,27.3539,-94.6254,79.0,24.1,55.1,-9999.0,'111111111,111111111,999999991'
Kerr-McGee,ioos:station:wmo:42373:1,2021-09-29T00:40:00Z,27.3539,-94.6254,79.0,24.8,57.3,-9999.0,'111111111,111111111,999999991'
Kerr-McGee,ioos:station:wmo:42373:1,2021-09-29T01:00:00Z,27.3539,-94.6254,79.0,30.1,64.6,-9999.0,'111111111,111111111,999999991'
Kerr-McGee,ioos:station:wmo:42373:1,2021-09-29T01:20:00Z,27.3539,-94.6254,79.0,29.4,68.1,-9999.0,'111111111,111111111,999999991'
Kerr-McGee,ioos:station:wmo:42373:1,2021-09-29T01:40:00Z,27.3539,-94.6254,79.0,29.9,70.8,-9999.0,'111111111,111111111,999999991'
Kerr-McGee,ioos:station:wmo:42373:1,2021-09-29T02:00:00Z,27.3539,-94.6254,79.0,30.8,70.7,-9999.0,'111111111,111111111,999999991'
Kerr-McGee,ioos:station:wmo:42373:1,2021-09-29T02:20:00Z,27.3539,-94.6254,79.0,30.6,74.1,-9999.0,'111111111,111111111,999999991'
Kerr-McGee,ioos:station:wmo:42373:1,2021-09-29T02:40:00Z,27.3539,-94.6254,79.0,30.6,74.6,-9999.0,'111111111,111111111,999999991'
Kerr-McGee,ioos:station:wmo:42373:1,2021-09-29T03:00:00Z,27.3539,-94.6254,79.0,30.6,75.4,-9999.0,'111111111,111111111,999999991'
Kerr-McGee,ioos:station:wmo:42373:1,2021-09-29T03:20:00Z,27.3539,-94.6254,79.0,27.8,74.6,-9999.0,'111111111,111111111,999999991'
Kerr-McGee,ioos:station:wmo:42373:1,2021-09-29T03:40:00Z,27.3539,-94.6254,79.0,27.9,76.1,-9999.0,'111111111,111111111,999999991'
Kerr-McGee,ioos:station:wmo:42373:1,2021-09-29T04:00:00Z,27.3539,-94.6254,79.0,28.2,77.7,-9999.0,'111111111,111111111,999999991'
Kerr-McGee,ioos:station:wmo:42373:1,2021-09-29T04:20:00Z,27.3539,-94.6254,79.0,28.1,77.4,-9999.0,'111111111,111111111,999999991'
Kerr-McGee,ioos:station:wmo:42373:1,2021-09-29T04:40:00Z,27.3539,-94.6254,79.0,28.5,79.5,-9999.0,'111111111,111111111,999999991'
Kerr-McGee,ioos:station:wmo:42373:1,2021-09-29T05:00:00Z,27.3539,-94.6254,79.0,28.7,80.2,-9999.0,'111111111,111111111,999999991'
Kerr-McGee,ioos:station:wmo:42373:1,2021-09-29T05:20:00Z,27.3539,-94.6254,79.0,28.5,80.5,-9999.0,'111111111,111111111,999999991'
Kerr-McGee,ioos:station:wmo:42373:1,2021-09-29T05:40:00Z,27.3539,-94.6254,79.0,30.8,78.4,-9999.0,'111111111,111111111,999999991'
Kerr-McGee,ioos:station:wmo:42373:1,2021-09-29T06:00:00Z,27.3539,-94.6254,79.0,31.6,77.9,-9999.0,'111111111,111111111,999999991'
Kerr-McGee,ioos:station:wmo:42373:1,2021-09-29T06:20:00Z,27.3539,-94.6254,79.0,31.1,77.8,-9999.0,'111111111,111111111,999999991'
Kerr-McGee,ioos:station:wmo:42373:1,2021-09-29T06:40:00Z,27.3539,-94.6254,79.0,31.1,79.1,-9999.0,'111111111,111111111,999999991'
Kerr-McGee,ioos:station:wmo:42373:1,2021-09-29T07:00:00Z,27.3539,-94.6254,79.0,32.1,82.5,-9999.0,'111111111,111111111,999999991'
Kerr-McGee,ioos:station:wmo:42373:1,2021-09-29T07:20:00Z,27.3539,-94.6254,79.0,32.2,83.4,-9999.0,'111111111,111111111,999999991'
Kerr-McGee,ioos:station:wmo:42373:1,2021-09-29T07:40:00Z,27.3539,-94.6254,79.0,32.2,84.1,-9999.0,'111111111,111111111,999999991'
Kerr-McGee,ioos:station:wmo:42373:1,2021-09-29T08:00:00Z,27.3539,-94.6254,79.0,31.5,82.9,-9999.0,'111111111,111111111,999999991'
Kerr-McGee,ioos:station:wmo:42373:1,2021-09-29T08:20:00Z,27.3539,-94.6254,79.0,31.8,81.5,-9999.0,'111111111,111111111,999999991'
Kerr-McGee,ioos:station:wmo:42373:1,2021-09-29T08:40:00Z,27.3539,-94.6254,79.0,32.1,81.8,-9999.0,'111111111,111111111,999999991'
Kerr-McGee,ioos:station:wmo:42373:1,2021-09-29T09:00:00Z,27.3539,-94.6254,79.0,31.9,83.9,-9999.0,'111111111,111111111,999999991'
Kerr-McGee,ioos:station:wmo:42373:1,2021-09-29T09:20:00Z,27.3539,-94.6254,79.0,32.3,85.9,-9999.0,'111111111,111111111,999999991'
Kerr-McGee,ioos:station:wmo:42373:1,2021-09-29T09:40:00Z,27.3539,-94.6254,79.0,32.0,86.4,-9999.0,'111111111,111111111,999999991'
Kerr-McGee,ioos:station:wmo:42373:1,2021-09-29T10:00:00Z,27.3539,-94.6254,79.0,32.1,87.0,-9999.0,'111111111,111111111,999999991'
Kerr-McGee,ioos:station:wmo:42373:1,2021-09-29T10:20:00Z,27.3539,-94.6254,79.0,33.5,88.8,-9999.0,'111111111,111111111,999999991'
Kerr-McGee,ioos:station:wmo:42373:1,2021-09-29T10:40:00Z,27.3539,-94.6254,79.0,33.5,88.1,-9999.0,'111111111,111111111,999999991'
Kerr-McGee,ioos:station:wmo:42373:1,2021-09-29T11:00:00Z,27.3539,-94.6254,79.0,33.5,88.3,-9999.0,'111111111,111111111,999999991'
Kerr-McGee,ioos:station:wmo:42373:1,2021-09-29T11:20:00Z,27.3539,-94.6254,79.0,32.8,90.0,-9999.0,'111111111,111111111,999999991'
Kerr-McGee,ioos:station:wmo:42373:1,2021-09-29T11:40:00Z,27.3539,-94.6254,79.0,32.4,90.0,-9999.0,'111111111,111111111,999999991'
Kerr-McGee,ioos:station:wmo:42373:1,2021-09-29T12:00:00Z,27.3539,-94.6254,79.0,32.5,95.3,-9999.0,'111111111,111111111,999999991'
Kerr-McGee,ioos:station:wmo:42373:1,2021-09-29T12:20:00Z,27.3539,-94.6254,79.0,30.3,91.9,-9999.0,'111111111,111111111,999999991'
Kerr-McGee,ioos:station:wmo:42373:1,2021-09-29T12:40:00Z,27.3539,-94.6254,79.0,28.5,95.2,-9999.0,'111111111,111111111,999999991'
Kerr-McGee,ioos:station:wmo:42373:1,2021-09-29T13:00:00Z,27.3539,-94.6254,79.0,28.1,95.9,-9999.0,'111111111,111111111,999999991'
Kerr-McGee,ioos:station:wmo:42373:1,2021-09-29T13:20:00Z,27.3539,-94.6254,79.0,27.5,98.6,-9999.0,'111111111,111111111,999999991'
Kerr-McGee,ioos:station:wmo:42373:1,2021-09-29T13:40:00Z,27.3539,-94.6254,79.0,23.5,98.6,-9999.0,'111111111,111111111,999999991'
Kerr-McGee,ioos:station:wmo:42373:1,2021-09-29T14:00:00Z,27.3539,-94.6254,79.0,25.1,102.4,-9999.0,'111111111,111111111,999999991'
Kerr-McGee,ioos:station:wmo:42373:1,2021-09-29T14:20:00Z,27.3539,-94.6254,79.0,24.2,100.0,-9999.0,'111111111,111111111,999999991'
Kerr-McGee,ioos:station:wmo:42373:1,2021-09-29T14:40:00Z,27.3539,-94.6254,79.0,25.1,103.6,-9999.0,'111111111,111111111,999999991'
Kerr-McGee,ioos:station:wmo:42373:1,2021-09-29T15:38:00Z,27.3539,-94.6254,79.0,23.0,105.6,-9999.0,'111111111,111111111,999999991'
Kerr-McGee,ioos:station:wmo:42373:1,2021-09-29T15:58:00Z,27.3539,-94.6254,79.0,24.0,103.7,-9999.0,'111111111,111111111,999999991'
Kerr-McGee,ioos:station:wmo:42373:1,2021-09-29T16:18:00Z,27.3539,-94.6254,79.0,24.2,106.8,-9999.0,'111111111,111111111,999999991'
Kerr-McGee,ioos:station:wmo:42373:1,2021-09-29T16:38:00Z,27.3539,-94.6254,79.0,25.3,109.2,-9999.0,'111111111,111111111,999999991'
Kerr-McGee,ioos:station:wmo:42373:1,2021-09-29T16:58:00Z,27.3539,-94.6254,79.0,24.2,111.4,-9999.0,'111111111,111111111,999999991'
Kerr-McGee,ioos:station:wmo:42373:1,2021-09-29T17:18:00Z,27.3539,-94.6254,79.0,22.8,107.1,-9999.0,'111111111,111111111,999999991'
Kerr-McGee,ioos:station:wmo:42373:1,2021-09-29T17:38:00Z,27.3539,-94.6254,79.0,24.1,106.4,-9999.0,'111111111,111111111,999999991'
Kerr-McGee,ioos:station:wmo:42373:1,2021-09-29T17:58:00Z,27.3539,-94.6254,79.0,22.9,103.9,-9999.0,'111111111,111111111,999999991'
Kerr-McGee,ioos:station:wmo:42373:1,2021-09-29T18:18:00Z,27.3539,-94.6254,79.0,21.5,109.3,-9999.0,'111111111,111111111,999999991'
Kerr-McGee,ioos:station:wmo:42373:1,2021-09-29T18:38:00Z,27.3539,-94.6254,79.0,21.6,105.6,-9999.0,'111111111,111111111,999999991'
Kerr-McGee,ioos:station:wmo:42373:1,2021-09-29T18:58:00Z,27.3539,-94.6254,79.0,22.0,102.3,-9999.0,'111111111,111111111,999999991'
Kerr-McGee,ioos:station:wmo:42373:1,2021-09-29T19:18:00Z,27.3539,-94.6254,79.0,18.6,102.4,-9999.0,'111111111,111111111,999999991'
Kerr-McGee,ioos:station:wmo:42373:1,2021-09-29T19:38:00Z,27.3539,-94.6254,79.0,19.7,102.0,-9999.0,'111111111,111111111,999999991'
Kerr-McGee,ioos:station:wmo:42373:1,2021-09-29T19:58:00Z,27.3539,-94.6254,79.0,19.3,104.1,-9999.0,'111111111,111111111,999999991'
Kerr-McGee,ioos:station:wmo:42373:1,2021-09-29T20:18:00Z,27.3539,-94.6254,79.0,20.4,110.4,-9999.0,'111111111,111111111,999999991'
Kerr-McGee,ioos:station:wmo:42373:1,2021-09-29T20:38:00Z,27.3539,-94.6254,79.0,22.1,106.8,-9999.0,'111111111,111111111,999999991'
Kerr-McGee,ioos:station:wmo:42373:1,2021-09-29T20:58:00Z,27.3539,-94.6254,79.0,19.3,104.4,-9999.0,'111111111,111111111,999999991'
Kerr-McGee,ioos:station:wmo:42373:1,2021-09-29T21:18:00Z,27.3539,-94.6254,79.0,19.0,102.1,-9999.0,'111111111,111111111,999999991'
Kerr-McGee,ioos:station:wmo:42373:1,2021-09-29T21:38:00Z,27.3539,-94.6254,79.0,19.5,104.0,-9999.0,'111111111,111111111,999999991'
Kerr-McGee,ioos:station:wmo:42373:1,2021-09-29T21:58:00Z,27.3539,-94.6254,79.0,18.2,100.8,-9999.0,'111111111,111111111,999999991'
Kerr-McGee,ioos:station:wmo:42373:1,2021-09-29T22:18:00Z,27.3539,-94.6254,79.0,18.3,100.1,-9999.0,'111111111,111111111,999999991'
Kerr-McGee,ioos:station:wmo:42373:1,2021-09-29T22:38:00Z,27.3539,-94.6254,79.0,17.1,85.7,-9999.0,'111111111,111111111,999999991'
Kerr-McGee,ioos:station:wmo:42373:1,2021-09-29T22:58:00Z,27.3539,-94.6254,79.0,17.0,81.9,-9999.0,'111111111,111111111,999999991'
Kerr-McGee,ioos:station:wmo:42373:1,2021-09-29T23:18:00Z,27.3539,-94.6254,79.0,17.5,78.8,-9999.0,'111111111,111111111,999999991'
Kerr-McGee,ioos:station:wmo:42373:1,2021-09-29T23:38:00Z,27.3539,-94.6254,79.0,17.2,79.9,-9999.0,'111111111,111111111,999999991'
Kerr-McGee,ioos:station:wmo:42373:1,2021-09-29T23:58:00Z,27.3539,-94.6254,79.0,18.3,75.4,-9999.0,'111111111,111111111,999999991'
Kerr-McGee,ioos:station:wmo:42373:1,2021-09-30T00:18:00Z,27.3539,-94.6254,79.0,18.7,72.2,-9999.0,'111111111,111111111,999999991'
Kerr-McGee,ioos:station:wmo:42373:1,2021-09-30T00:38:00Z,27.3539,-94.6254,79.0,21.1,68.0,-9999.0,'111111111,111111111,999999991'
Kerr-McGee,ioos:station:wmo:42373:1,2021-09-30T00:58:00Z,27.3539,-94.6254,79.0,23.3,72.3,-9999.0,'111111111,111111111,999999991'
Kerr-McGee,ioos:station:wmo:42373:1,2021-09-30T01:18:00Z,27.3539,-94.6254,79.0,22.8,69.2,-9999.0,'111111111,111111111,999999991'
Kerr-McGee,ioos:station:wmo:42373:1,2021-09-30T01:38:00Z,27.3539,-94.6254,79.0,23.4,65.7,-9999.0,'111111111,111111111,999999991'
Kerr-McGee,ioos:station:wmo:42373:1,2021-09-30T01:58:00Z,27.3539,-94.6254,79.0,24.1,65.5,-9999.0,'111111111,111111111,999999991'
Kerr-McGee,ioos:station:wmo:42373:1,2021-09-30T02:18:00Z,27.3539,-94.6254,79.0,24.3,67.5,-9999.0,'111111111,111111111,999999991'
Kerr-McGee,ioos:station:wmo:42373:1,2021-09-30T02:38:00Z,27.3539,-94.6254,79.0,24.8,67.3,-9999.0,'111111111,111111111,999999991'
Kerr-McGee,ioos:station:wmo:42373:1,2021-09-30T02:58:00Z,27.3539,-94.6254,79.0,25.0,69.2,-9999.0,'111111111,111111111,999999991'
Kerr-McGee,ioos:station:wmo:42373:1,2021-09-30T03:18:00Z,27.3539,-94.6254,79.0,26.0,68.4,-9999.0,'111111111,111111111,999999991'
Kerr-McGee,ioos:station:wmo:42373:1,2021-09-30T03:38:00Z,27.3539,-94.6254,79.0,26.4,67.2,-9999.0,'111111111,111111111,999999991'
Kerr-McGee,ioos:station:wmo:42373:1,2021-09-30T03:58:00Z,27.3539,-94.6254,79.0,26.8,68.3,-9999.0,'111111111,111111111,999999991'
Kerr-McGee,ioos:station:wmo:42373:1,2021-09-30T04:18:00Z,27.3539,-94.6254,79.0,26.7,68.0,-9999.0,'111111111,111111111,999999991'
Kerr-McGee,ioos:station:wmo:42373:1,2021-09-30T04:38:00Z,27.3539,-94.6254,79.0,27.6,70.8,-9999.0,'111111111,111111111,999999991'
Kerr-McGee,ioos:station:wmo:42373:1,2021-09-30T04:58:00Z,27.3539,-94.6254,79.0,27.5,73.1,-9999.0,'111111111,111111111,999999991'
Kerr-McGee,ioos:station:wmo:42373:1,2021-09-30T05:18:00Z,27.3539,-94.6254,79.0,27.8,70.9,-9999.0,'111111111,111111111,999999991'
Kerr-McGee,ioos:station:wmo:42373:1,2021-09-30T05:38:00Z,27.3539,-94.6254,79.0,29.1,69.5,-9999.0,'111111111,111111111,999999991'
Kerr-McGee,ioos:station:wmo:42373:1,2021-09-30T05:58:00Z,27.3539,-94.6254,79.0,29.4,71.6,-9999.0,'111111111,111111111,999999991'
Kerr-McGee,ioos:station:wmo:42373:1,2021-09-30T06:18:00Z,27.3539,-94.6254,79.0,29.6,73.5,-9999.0,'111111111,111111111,999999991'
Kerr-McGee,ioos:station:wmo:42373:1,2021-09-30T06:38:00Z,27.3539,-94.6254,79.0,30.2,74.9,-9999.0,'111111111,111111111,999999991'